Location: Dittelbrunn
(50.0738°N, 10.2196°E)
Time: 22:22:25
(UTC+00:00)

Cosmos 2263 Rocket - Pass Details

Date: 18 September 2020
Orbit: 822 x 850 km, 71.0° (Epoch: 30 October)

Event Time Altitude Azimuth Distance (km) Brightness Sun altitude
Rises 19:32:24 0° 237° (WSW) 3,352 5.7 -20.3°
Reaches altitude 10° 19:35:02 10° 246° (WSW) 2,424 5.1 -20.7°
Maximum altitude 19:40:05 35° 312° (NW) 1,317 3.8 -21.4°
Drops below altitude 10° 19:45:12 10° 18° (NNE) 2,450 4.8 -22.1°
Sets 19:47:53 0° 27° (NNE) 3,392 5.4 -22.5°
